This demonstration page uses our WeatherBlox Daily Observations layout. Learn more.

41.55636, -103.73856

Hourly Observations for May 19, 2015

Temp ( °F °C ) Dew Point ( °F °C ) Humidity (%) Winds ( mph kmh ) Pressure ( in mb ) Visibility ( mi km ) Precip ( " mm )
12:53 am 00:53 Cloudy 52 11 36 2 54 54 E 15 24 30.21 1023 10 16.09344 0 0
1:53 am 01:53 Cloudy 50 10 37 3 62 62 E 16 26 30.24 1024 10 16.09344 0 0
2:53 am 02:53 Cloudy 50 10 37 3 62 62 ESE 16 26 30.18 1022 10 16.09344 0 0
3:53 am 03:53 Cloudy 48 9 37 3 66 66 ESE 18 30 30.21 1023 10 16.09344 0 0
4:53 am 04:53 Cloudy 48 9 36 2 62 62 ESE 23 37 30.24 1024 10 16.09344 0 0
5:53 am 05:53 Cloudy with Light Rain 45 7 39 4 81 81 ESE 16 26 30.27 1025 7 11.265408 0.04 1.016
6:21 am 06:21 Cloudy with Light Rain 43 6 39 4 87 87 ESE 18 30 30.3 1026 6 9.656064 0.03 0.762
6:42 am 06:42 Cloudy with Light Rain 43 6 39 4 87 87 ESE 20 31 30.3 1026 6 9.656064 0 0
6:53 am 06:53 Cloudy with Light Rain 43 6 39 4 87 87 ESE 18 30 30.3 1026 6 9.656064 0.05 1.27
7:13 am 07:13 Cloudy with Light Rain 43 6 39 4 87 87 ESE 18 30 30.3 1026 6 9.656064 0.02 0.508
7:24 am 07:24 Cloudy with Light Rain 43 6 39 4 87 87 ESE 17 28 30.3 1026 6 9.656064 0 0
7:46 am 07:46 Cloudy with Light Rain 43 6 39 4 87 87 ESE 20 31 30.3 1026 7 11.265408 0.05 1.27
7:53 am 07:53 Cloudy with Light Rain 43 6 39 4 87 87 ESE 17 28 30.3 1026 7 11.265408 0.06 1.524
8:53 am 08:53 Cloudy with Light Rain 43 6 39 4 87 87 ESE 20 31 30.3 1026 7 11.265408 0.03 0.762
9:53 am 09:53 Cloudy with Rain 43 6 39 4 87 87 ESE 21 33 30.24 1024 4 6.437376 0.05 1.27
10:53 am 10:53 Cloudy with Rain 41 5 39 4 93 93 ESE 21 33 30.27 1025 5 8.04672 0.09 2.286
11:53 am 11:53 Cloudy with Rain 39 4 37 3 93 93 ESE 20 31 30.3 1026 4 6.437376 0.14 3.556
12:26 pm 12:26 Cloudy with Rain 37 3 36 2 93 93 E 18 30 30.3 1026 5 8.04672 0 0
12:53 pm 12:53 Cloudy with Light Snow 36 2 34 1 93 93 ESE 14 22 30.33 1027 3 4.828032 0.1 2.54
1:00 pm 13:00 Cloudy with Light Snow 36 2 34 1 93 93 ESE 13 20 30.33 1027 1.75 2.816352 0 0
1:13 pm 13:13 Cloudy with Snow 34 1 34 1 100 100 E 10 17 30.33 1027 0.5 0.804672 0.04 1.016
1:53 pm 13:53 Cloudy with Light Snow 34 1 34 1 100 100 ENE 3 6 30.33 1027 0.75 1.207008 0.1 2.54
1:58 pm 13:58 Cloudy with Light Snow 34 1 34 1 100 100 ENE 5 7 30.33 1027 1.25 2.01168 0.01 0.254
2:08 pm 14:08 Cloudy with Light Snow 36 2 34 1 93 93 E 5 7 30.33 1027 3 4.828032 0 0
2:26 pm 14:26 Cloudy with Light Snow 36 2 34 1 93 93 E 6 9 30.33 1027 2.5 4.02336 0 0
2:53 pm 14:53 Cloudy with Light Snow 36 2 34 1 93 93 ESE 6 9 30.33 1027 1.75 2.816352 0.04 1.016
3:12 pm 15:12 Cloudy with Light Snow 36 2 34 1 93 93 ESE 7 11 30.33 1027 1.75 2.816352 0 0
3:35 pm 15:35 Cloudy with Light Snow 36 2 34 1 93 93 ESE 5 7 30.33 1027 2 3.218688 0.03 0.762
3:53 pm 15:53 Cloudy with Light Rain 36 2 34 1 93 93 E 8 13 30.33 1027 3 4.828032 0.04 1.016
3:55 pm 15:55 Cloudy with Light Rain 36 2 34 1 93 93 E 9 15 30.33 1027 2.5 4.02336 0 0
4:09 pm 16:09 Cloudy with Light Snow 36 2 34 1 93 93 E 9 15 30.33 1027 1.25 2.01168 0.01 0.254
4:22 pm 16:22 Cloudy with Light Snow 34 1 34 1 100 100 E 8 13 30.3 1026 0.75 1.207008 0 0
4:27 pm 16:27 Cloudy with Light Snow 34 1 34 1 100 100 E 8 13 30.3 1026 1 1.609344 0.04 1.016
4:49 pm 16:49 Partly Cloudy with Isolated Snow Showers 36 2 34 1 93 93 E 8 13 30.27 1025 1.75 2.816352 0.06 1.524
4:53 pm 16:53 Partly Cloudy with Isolated Snow Showers 36 2 34 1 93 93 E 10 17 30.27 1025 1.75 2.816352 0.06 1.524
5:05 pm 17:05 Cloudy with Light Snow 36 2 34 1 93 93 E 9 15 30.33 1027 1.25 2.01168 0.01 0.254
5:16 pm 17:16 Cloudy with Light Snow 36 2 34 1 93 93 E 9 15 30.27 1025 1 1.609344 0 0
5:34 pm 17:34 Cloudy with Light Snow 34 1 34 1 100 100 E 10 17 30.3 1026 1.75 2.816352 0 0
5:53 pm 17:53 Cloudy with Light Snow 34 1 34 1 100 100 E 9 15 30.3 1026 1.25 2.01168 0.04 1.016
6:27 pm 18:27 Cloudy with Light Snow 36 2 34 1 93 93 ENE 9 15 30.27 1025 2.5 4.02336 0.01 0.254
6:36 pm 18:36 Cloudy with Light Snow 36 2 34 1 93 93 ENE 8 13 30.27 1025 1.25 2.01168 0 0
6:47 pm 18:47 Cloudy with Light Snow 36 2 34 1 93 93 E 9 15 30.27 1025 3 4.828032 0.02 0.508
6:53 pm 18:53 Cloudy with Light Snow 36 2 34 1 93 93 E 10 17 30.27 1025 5 8.04672 0.02 0.508
6:57 pm 18:57 Cloudy 36 2 34 1 93 93 E 9 15 30.27 1025 7 11.265408 0.001 0.001
7:04 pm 19:04 Cloudy 36 2 34 1 93 93 E 9 15 30.27 1025 9 14.484096 0 0
7:43 pm 19:43 Cloudy with Light Snow 36 2 34 1 93 93 E 10 17 30.27 1025 8 12.874752 0.001 0.001
7:53 pm 19:53 Cloudy 36 2 34 1 93 93 E 10 17 30.27 1025 10 16.09344 0.001 0.001
8:24 pm 20:24 Cloudy 36 2 34 1 93 93 E 10 17 30.27 1025 10 16.09344 0 0
8:38 pm 20:38 Cloudy with Light Snow 36 2 34 1 93 93 E 10 17 30.27 1025 7 11.265408 0 0
8:46 pm 20:46 Cloudy with Light Snow 36 2 34 1 93 93 E 10 17 30.27 1025 5 8.04672 0.001 0.001
8:53 pm 20:53 Cloudy with Light Snow 36 2 34 1 93 93 E 9 15 30.27 1025 7 11.265408 0.001 0.001
9:27 pm 21:27 Cloudy with Light Snow 34 1 34 1 100 100 E 8 13 30.33 1027 7 11.265408 0.001 0.001
9:45 pm 21:45 Cloudy with Light Snow 34 1 32 0 93 93 E 7 11 30.33 1027 5 8.04672 0.01 0.254
9:53 pm 21:53 Cloudy with Light Snow 34 1 34 1 100 100 ESE 8 13 30.33 1027 5 8.04672 0.01 0.254
10:11 pm 22:11 Cloudy with Light Snow 34 1 34 1 100 100 ESE 8 13 30.33 1027 2.5 4.02336 0.001 0.001
10:17 pm 22:17 Cloudy with Light Snow 34 1 34 1 100 100 ESE 6 9 30.33 1027 2 3.218688 0.001 0.001
10:27 pm 22:27 Cloudy with Light Snow 34 1 34 1 100 100 ESE 6 9 30.33 1027 1.75 2.816352 0.01 0.254
10:53 pm 22:53 Cloudy with Light Snow 34 1 34 1 100 100 ESE 3 6 30.33 1027 2 3.218688 0.01 0.254
11:13 pm 23:13 Cloudy with Light Snow 34 1 32 0 93 93 E 5 7 30.33 1027 5 8.04672 0.01 0.254
11:24 pm 23:24 Cloudy with Light Snow 34 1 32 0 93 93 E 3 6 30.33 1027 5 8.04672 0 0
11:53 pm 23:53 Cloudy with Light Snow 34 1 32 0 93 93 E 3 6 30.33 1027 4 6.437376 0.01 0.254

Powered by AerisWeather